Flag for Russia Weather past 2 weeks in Saint-Petersburg, Russia

Now
48 °F

Clear.


Feels Like: 45 °F
Forecast: 46 / 63 °F
Wind: 8 mph from Southwest

Location: St. Petersburg

Current Time: Sep 21, 2014 at 3:09:13 AM

Latest Report: Sep 21, 2014 at 2:30 AM


Visibility: 10 mi

Pressure: 29.98 "Hg

Humidity: 76%

Dew point: 41 °F

Location of Saint-PetersburgLocation

Historic Weather in Saint-Petersburg — Graph

°F

Saint-Petersburg temperature yesterday

Maximum temperature yesterday: 68 °F (at 3:00 PM)
Minimum temperature yesterday: 46 °F (at 6:00 AM)
Average temperature yesterday: 56 °F

Past Weeks' High & Low Weather Summary

 TemperatureHumidityPressure
High77 °F (Sep 11, 3:30 PM)100% (Sep 7, 2:00 AM)30.45 "Hg (Sep 7, 2:00 AM)
Low37 °F (Sep 18, 8:00 AM)34% (Sep 16, 4:30 PM)29.98 "Hg (Sep 9, 6:30 PM)
Average56 °F78%30.23 "Hg
* Reported Sep 6 1:00 AM — Sep 21 1:30 AM, Saint-Petersburg, Weather by CustomWeather, © 2014

Note: Actual official high and low records may vary slightly from our data, if they occured in-between our weather recording intervals... More about our weather records

Advertising

Saint-Petersburg weather history for previous 24 hours

 ConditionsComfort  
Time TempWeatherWind HumidityBarometerVisibility
1:30 AM
Sep 21
46 °FClear.8 mph82%30.01 "Hg10 mi
12:30 AM48 °FPassing clouds.6 mph82%30.01 "HgN/A
12:00 AM50 °FClear.8 mph71%30.01 "Hg10 mi
11:30 PM
Sep 20
52 °FClear.6 mph72%30.01 "Hg10 mi
11:00 PM52 °FPassing clouds.6 mph72%30.01 "HgN/A
10:30 PM52 °FPassing clouds.6 mph72%30.04 "HgN/A
10:00 PM52 °FPassing clouds.6 mph72%30.04 "HgN/A
9:30 PM50 °FClear.6 mph76%30.04 "Hg10 mi
5:30 PM68 °FSunny.10 mph38%30.04 "Hg10 mi
5:00 PM68 °FPassing clouds.10 mph38%30.07 "HgN/A
4:30 PM68 °FPassing clouds.10 mph38%30.07 "HgN/A
4:00 PM68 °FSunny.13 mph38%30.07 "Hg10 mi
3:30 PM68 °FSunny.10 mph40%30.07 "Hg10 mi
3:00 PM68 °FPassing clouds.10 mph38%30.07 "HgN/A
2:30 PM66 °FSunny.13 mph40%30.09 "Hg10 mi
2:00 PM66 °FSunny.10 mph43%30.09 "Hg10 mi
1:30 PM66 °FSunny.10 mph43%30.09 "Hg10 mi
1:00 PM64 °FSunny.13 mph46%30.09 "Hg10 mi
12:30 PM64 °FSunny.13 mph46%30.09 "Hg10 mi
12:00 PM64 °FSunny.8 mph52%30.09 "Hg10 mi
11:30 AM61 °FSunny.8 mph63%30.09 "Hg10 mi
11:00 AM59 °FSunny.6 mph63%30.09 "Hg10 mi
10:30 AM59 °FClear.3 mph72%30.09 "HgN/A
10:00 AM55 °FClear.3 mph77%30.12 "Hg5 mi
9:30 AM54 °FFog.1 mph77%30.12 "Hg5 mi
9:00 AM50 °FFog.3 mph88%30.12 "Hg4 mi
8:30 AM46 °FFog.3 mph93%30.12 "Hg1 mi
8:00 AM46 °FFog.6 mph93%30.12 "Hg1 mi
7:30 AM46 °FFog.3 mph87%30.12 "Hg1 mi
7:00 AM46 °FClear.1 mph93%30.12 "Hg10 mi
6:30 AM46 °FPassing clouds.3 mph87%30.12 "HgN/A
6:00 AM46 °FClear.1 mph87%30.12 "Hg10 mi
5:00 AM48 °FClear.1 mph87%30.12 "Hg10 mi
4:30 AM48 °FClear.No wind82%30.12 "Hg10 mi
4:00 AM50 °FClear.1 mph82%30.15 "Hg10 mi
3:30 AM50 °FPassing clouds.3 mph82%30.15 "HgN/A
3:00 AM50 °FPassing clouds.3 mph82%30.15 "HgN/A
Weather by CustomWeather, © 2014

See weather overviewHow to use our weather pages